Woodward, OK

6:27 PM CDT on April 23, 2017 (GMT -0500)
West Woodward

Weather History for KWWR - September, 2013

Change the Weather History Date:

Saturday, September 28, 2013

  Actual Average (KGAG) Record (KGAG)
Temperature  
Mean Temperature 62 °F -  
Max Temperature 71 °F 79 °F 104 °F (1953)
Min Temperature 53 °F 52 °F 33 °F (1967)
Degree Days  
Heating Degree Days 3    
Growing Degree Days 12 (Base 50)    
Moisture  
Dew Point 47 °F    
Average Humidity 61    
Maximum Humidity 94    
Minimum Humidity 27    
Precipitation  
Precipitation 0.94 in - - ()
Sea Level Pressure  
Sea Level Pressure 30.07 in    
Wind  
Wind Speed 11 mph (NNW)    
Max Wind Speed 23 mph    
Max Gust Speed 29 mph    
Visibility 10 miles    
Events Rain , Thunderstorm    
Averages and records for this station are not official NWS values.
T = Trace of Precipitation, MM = Missing Value Source: NWS Daily Summary

Daily Weather History Graph

Daily Weather History Graph

Search for Another Location

Airport or City:

Trip Planner

Search our weather history database for the weather conditions in past years. The results will help you decide how hot, cold, wet, or windy it might be!

Date:

Astronomy

Sep. 28, 2013 Rise Set
Actual Time 7:31 AM CDT 7:25 PM CDT
Civil Twilight 7:05 AM CDT 7:51 PM CDT
Nautical Twilight 6:35 AM CDT 8:21 PM CDT
Astronomical Twilight 6:05 AM CDT 8:51 PM CDT
Moon 1:28 AM CDT (9/28) 3:37 PM CDT (9/28)
Length of Visible Light 12h 45m
Length of Day
11h 54m
Waning Crescent, 36% of the Moon is Illuminated
Sep 28
Waning Crescent
Oct 4
New
Oct 11
First Quarter
Oct 18
Full
Oct 26
Last Quarter

Hourly Weather History & Observations

Time (CDT) Temp. Dew Point Humidity Pressure Visibility Wind Dir Wind Speed Gust Speed Precip Events Conditions
12:15 AM 69.8 °F 64.4 °F 83% 29.86 in 10.0 mi SSW 4.6 mph - 0.02 in Rain , Thunderstorm Light Thunderstorms and Rain
12:35 AM 69.8 °F 66.2 °F 88% 29.86 in 10.0 mi SW 9.2 mph - 0.04 in Rain , Thunderstorm Rain
12:55 AM 69.8 °F 64.4 °F 83% 29.83 in 10.0 mi South 12.7 mph 18.4 mph 0.06 in Rain , Thunderstorm Rain
1:15 AM 69.8 °F 64.4 °F 83% 29.81 in 10.0 mi South 16.1 mph 25.3 mph N/A Rain , Thunderstorm Light Thunderstorms and Rain
1:35 AM 68.0 °F 62.6 °F 83% 29.81 in 10.0 mi SSW 17.3 mph 27.6 mph N/A Thunderstorm Thunderstorm
1:55 AM 68.0 °F 62.6 °F 83% 29.81 in 10.0 mi SSW 12.7 mph 19.6 mph N/A Thunderstorm Scattered Clouds
2:15 AM 68.0 °F 62.6 °F 83% 29.83 in 10.0 mi SW 10.4 mph - N/A Thunderstorm Mostly Cloudy
2:35 AM 66.2 °F 62.6 °F 88% 29.85 in 2.0 mi WSW 13.8 mph 21.9 mph 0.24 in Rain , Thunderstorm Heavy Thunderstorms and Rain
2:55 AM 64.4 °F 62.6 °F 94% 29.89 in 5.0 mi WSW 20.7 mph 27.6 mph 0.47 in Rain , Thunderstorm Thunderstorms and Rain
3:15 AM 64.4 °F 62.6 °F 94% 29.89 in 7.0 mi WNW 12.7 mph 25.3 mph 0.05 in Rain , Thunderstorm Light Thunderstorms and Rain
3:35 AM 59.0 °F 55.4 °F 88% 29.92 in 7.0 mi NW 23.0 mph 28.8 mph 0.12 in Rain , Thunderstorm Thunderstorms and Rain
3:55 AM 57.2 °F 53.6 °F 88% 29.96 in 7.0 mi NW 17.3 mph 24.2 mph 0.18 in Rain , Thunderstorm Thunderstorms and Rain
4:15 AM 55.4 °F 53.6 °F 94% 29.93 in 7.0 mi NNW 17.3 mph 23.0 mph 0.07 in Rain , Thunderstorm Heavy Thunderstorms and Rain
4:35 AM 55.4 °F 51.8 °F 88% 29.97 in 7.0 mi NNW 19.6 mph 25.3 mph 0.16 in Rain , Thunderstorm Rain
4:55 AM 55.4 °F 51.8 °F 88% 29.97 in 10.0 mi North 12.7 mph - 0.22 in Rain Rain
5:15 AM 55.4 °F 51.8 °F 88% 29.98 in 10.0 mi NNW 12.7 mph 18.4 mph 0.01 in Rain Light Rain
5:35 AM 55.4 °F 51.8 °F 88% 29.98 in 10.0 mi NNW 13.8 mph - 0.01 in   Mostly Cloudy
5:55 AM 55.4 °F 51.8 °F 88% 29.98 in 10.0 mi NNW 13.8 mph - 0.01 in   Scattered Clouds
6:15 AM 55.4 °F 50.0 °F 82% 30.00 in 10.0 mi NW 10.4 mph 17.3 mph N/A   Mostly Cloudy
6:35 AM 55.4 °F 50.0 °F 82% 30.02 in 10.0 mi NW 6.9 mph - N/A   Mostly Cloudy
6:55 AM 53.6 °F 50.0 °F 88% 30.03 in 10.0 mi NW 8.1 mph - N/A   Clear
7:15 AM 53.6 °F 50.0 °F 88% 30.04 in 10.0 mi NNW 11.5 mph - N/A   Clear
7:35 AM 53.6 °F 48.2 °F 82% 30.06 in 10.0 mi NW 9.2 mph - N/A   Clear
7:55 AM 53.6 °F 48.2 °F 82% 30.07 in 10.0 mi NW 8.1 mph - N/A   Clear
8:15 AM 53.6 °F 48.2 °F 82% 30.08 in 10.0 mi NW 9.2 mph - N/A   Clear
8:35 AM 53.6 °F 48.2 °F 82% 30.09 in 10.0 mi NNW 9.2 mph - N/A   Clear
8:55 AM 53.6 °F 48.2 °F 82% 30.10 in 10.0 mi NW 9.2 mph - N/A   Clear
9:15 AM 55.4 °F 48.2 °F 77% 30.10 in 10.0 mi NNW 12.7 mph - N/A   Clear
9:35 AM 59.0 °F 48.2 °F 67% 30.11 in 10.0 mi NNW 17.3 mph 21.9 mph N/A   Clear
9:55 AM 59.0 °F 46.4 °F 63% 30.12 in 10.0 mi NNW 16.1 mph 21.9 mph N/A   Clear
10:15 AM 59.0 °F 46.4 °F 63% 30.13 in 10.0 mi NNW 15.0 mph 21.9 mph N/A   Clear
10:35 AM 59.0 °F 46.4 °F 63% 30.15 in 10.0 mi NNW 11.5 mph 20.7 mph N/A   Clear
10:55 AM 59.0 °F 46.4 °F 63% 30.15 in 10.0 mi NNW 11.5 mph 17.3 mph N/A   Clear
11:15 AM 60.8 °F 46.4 °F 59% 30.16 in 10.0 mi North 11.5 mph 19.6 mph N/A   Clear
11:35 AM 62.6 °F 44.6 °F 52% 30.16 in 10.0 mi North 12.7 mph 19.6 mph N/A   Clear
11:55 AM 64.4 °F 42.8 °F 45% 30.16 in 10.0 mi NNW 18.4 mph 24.2 mph N/A   Clear
12:15 PM 64.4 °F 41.0 °F 42% 30.15 in 10.0 mi North 17.3 mph 23.0 mph N/A   Clear
12:35 PM 66.2 °F 42.8 °F 43% 30.16 in 10.0 mi North 15.0 mph 23.0 mph N/A   Clear
12:55 PM 68.0 °F 41.0 °F 37% 30.16 in 10.0 mi NNW 12.7 mph - N/A   Clear
1:15 PM 68.0 °F 41.0 °F 37% 30.15 in 10.0 mi North 12.7 mph 20.7 mph N/A   Clear
1:35 PM 69.8 °F 41.0 °F 35% 30.15 in 10.0 mi North 16.1 mph 23.0 mph N/A   Clear
1:55 PM 69.8 °F 41.0 °F 35% 30.14 in 10.0 mi North 17.3 mph 24.2 mph N/A   Clear
2:15 PM 69.8 °F 42.8 °F 38% 30.13 in 10.0 mi North 12.7 mph 16.1 mph N/A   Clear
2:35 PM 69.8 °F 41.0 °F 35% 30.13 in 10.0 mi NNW 12.7 mph 19.6 mph N/A   Clear
2:55 PM 71.6 °F 41.0 °F 33% 30.12 in 10.0 mi North 13.8 mph - N/A   Clear
3:15 PM 71.6 °F 42.8 °F 35% 30.12 in 10.0 mi NNW 16.1 mph 19.6 mph N/A   Clear
3:35 PM 71.6 °F 41.0 °F 33% 30.11 in 10.0 mi North 13.8 mph 18.4 mph N/A   Clear
3:55 PM 71.6 °F 39.2 °F 31% 30.11 in 10.0 mi NNW 10.4 mph - N/A   Clear
4:15 PM 71.6 °F 37.4 °F 29% 30.12 in 10.0 mi NW 8.1 mph 18.4 mph N/A   Clear
4:35 PM 71.6 °F 39.2 °F 31% 30.12 in 10.0 mi North 8.1 mph - N/A   Clear
4:55 PM 71.6 °F 37.4 °F 29% 30.12 in 10.0 mi North 9.2 mph - N/A   Clear
5:15 PM 71.6 °F 37.4 °F 29% 30.11 in 10.0 mi NNW 10.4 mph - N/A   Clear
5:35 PM 71.6 °F 37.4 °F 29% 30.11 in 10.0 mi NW 10.4 mph 17.3 mph N/A   Clear
5:55 PM 71.6 °F 37.4 °F 29% 30.11 in 10.0 mi NNW 10.4 mph - N/A   Clear
6:15 PM 71.6 °F 35.6 °F 27% 30.12 in 10.0 mi NNW 8.1 mph - N/A   Clear
6:35 PM 71.6 °F 35.6 °F 27% 30.12 in 10.0 mi NNW 4.6 mph - N/A   Clear
6:55 PM 69.8 °F 41.0 °F 35% 30.12 in 10.0 mi NNW 4.6 mph - N/A   Clear
7:15 PM 66.2 °F 44.6 °F 46% 30.12 in 10.0 mi NNW 5.8 mph - N/A   Clear
7:35 PM 62.6 °F 44.6 °F 52% 30.12 in 10.0 mi NNW 6.9 mph - N/A   Clear
7:55 PM 60.8 °F 44.6 °F 55% 30.13 in 10.0 mi NNW 5.8 mph - N/A   Clear
8:15 PM 60.8 °F 42.8 °F 52% 30.13 in 10.0 mi NNW 5.8 mph - N/A   Clear
8:35 PM 59.0 °F 44.6 °F 59% 30.15 in 10.0 mi NNW 5.8 mph - N/A   Clear
8:55 PM 59.0 °F 44.6 °F 59% 30.15 in 10.0 mi NNW 4.6 mph - N/A   Clear
9:15 PM 59.0 °F 42.8 °F 55% 30.16 in 10.0 mi North 4.6 mph - N/A   Clear
9:35 PM 60.8 °F 42.8 °F 52% 30.16 in 10.0 mi North 3.5 mph - N/A   Clear
9:55 PM 60.8 °F 41.0 °F 48% 30.17 in 10.0 mi North 3.5 mph - N/A   Clear
10:15 PM 60.8 °F 41.0 °F 48% 30.18 in 10.0 mi North 3.5 mph - N/A   Clear
10:35 PM 59.0 °F 42.8 °F 55% 30.18 in 10.0 mi NNE 3.5 mph - N/A   Clear
10:55 PM 59.0 °F 41.0 °F 51% 30.18 in 10.0 mi Calm Calm - N/A   Clear
11:15 PM 59.0 °F 42.8 °F 55% 30.19 in 10.0 mi Calm Calm - N/A   Clear
11:35 PM 55.4 °F 44.6 °F 67% 30.19 in 10.0 mi Calm Calm - N/A   Clear
11:55 PM 55.4 °F 44.6 °F 67% 30.19 in 10.0 mi Calm Calm - N/A   Clear